GFSNW_250_spd_111.txt.gz
Wind_Speed
98 96 95 93 89 86 88 87 80 74 68 66 66 67 68 67 66 64 60 50 49 45 40 38 36 36 40 40 49 54 57 53 66 65 69 75 74 76 81 85 72 70 69 68
97 96 93 88 84 87 87 84 77 73 68 66 67 67 66 65 64 60 57 47 45 39 35 35 31 31 31 34 42 47 47 48 62 64 66 69 70 69 70 68 70 67 66 62
94 91 87 84 86 84 84 80 75 73 68 67 67 66 64 63 58 56 54 47 41 37 32 30 27 27 29 35 40 43 46 51 63 64 64 66 66 65 63 62 63 60 62 64
88 84 86 85 84 80 81 82 76 73 68 67 66 63 62 59 56 51 50 45 39 34 31 28 25 25 30 32 36 37 39 49 60 61 61 61 60 60 58 58 57 58 58 59
85 87 84 84 82 81 84 81 77 72 70 65 63 59 57 56 53 49 44 44 35 33 29 25 22 24 27 30 33 34 38 44 48 52 54 54 54 56 57 52 51 49 52 56
86 86 85 86 85 84 85 80 72 70 68 63 61 55 54 54 50 43 43 40 33 32 28 23 22 22 27 29 32 34 35 35 41 45 47 46 49 49 50 49 49 49 48 51
90 90 89 88 87 85 80 76 74 70 68 63 58 51 51 51 43 43 35 38 29 30 26 23 22 21 26 30 32 34 35 35 36 39 42 45 45 44 45 46 48 49 50 51
92 90 89 88 84 78 78 75 71 66 64 61 54 48 47 47 39 39 34 34 28 28 24 22 21 21 23 31 34 35 35 36 37 37 41 42 43 44 45 47 47 45 47 49
91 89 86 81 78 76 74 71 66 63 61 59 50 45 44 40 36 35 33 30 26 26 23 20 21 24 24 30 34 33 34 36 39 40 40 38 39 41 40 37 36 41 45 46
84 82 80 78 74 71 70 68 63 61 58 53 46 42 38 36 33 31 30 27 23 23 22 22 21 25 25 28 29 32 33 39 41 42 39 39 40 40 40 43 40 43 45 47
81 79 76 73 70 68 67 64 60 56 54 43 41 37 33 32 29 27 27 23 21 21 22 21 21 23 23 26 28 30 35 39 41 41 41 40 40 43 42 40 42 45 46 48
77 74 71 69 65 64 62 57 54 51 46 38 38 31 29 26 27 25 24 22 22 20 21 21 22 21 22 23 28 30 35 39 40 41 37 41 43 42 42 44 46 48 48 48
70 69 66 63 61 57 56 52 48 48 37 35 31 27 26 25 22 23 22 21 21 19 21 20 20 19 22 26 31 31 32 31 37 36 36 40 43 43 44 45 47 46 47 48
63 62 59 58 54 51 49 46 45 40 34 31 27 25 23 21 20 22 22 19 19 20 18 19 19 20 22 27 27 28 28 33 37 38 39 42 44 46 46 44 44 44 46 47
54 53 52 50 47 44 43 43 40 33 29 27 23 24 21 18 18 20 20 20 17 19 18 21 20 18 20 22 25 27 30 36 36 39 43 45 47 50 51 48 45 45 47 48
43 43 44 42 39 40 42 38 30 28 24 25 22 22 19 17 17 20 19 19 16 17 20 20 19 20 21 22 23 26 31 29 31 35 44 47 49 51 53 51 51 49 51 49
37 37 37 35 36 39 33 29 27 23 23 22 21 20 18 17 18 21 22 21 17 16 18 18 18 20 21 21 22 24 24 29 34 37 41 44 47 48 50 49 50 52 50 48
35 34 33 34 35 31 28 23 23 22 22 21 20 19 18 18 19 22 23 22 18 15 18 18 20 20 20 20 21 24 28 30 32 34 36 39 43 45 46 49 49 51 49 43
32 31 31 31 31 27 24 22 20 22 21 19 19 19 19 19 20 22 22 20 16 13 15 17 20 21 20 20 22 24 26 29 32 34 37 39 42 45 44 44 41 44 46 47
27 28 30 32 24 24 22 20 21 21 19 18 18 18 19 18 18 18 17 16 14 10 14 18 20 21 21 21 21 23 26 28 30 32 34 35 38 42 45 45 43 46 48 48
28 31 30 23 24 22 21 21 21 19 16 16 16 17 18 17 16 16 15 16 15 16 18 18 19 20 20 22 23 24 26 29 31 32 33 34 35 39 42 42 41 43 43 43
33 28 23 22 21 22 21 21 19 16 14 14 15 15 15 14 14 14 14 14 17 19 19 18 17 18 20 22 25 26 28 30 34 35 35 36 37 38 40 41 42 42 42 44
20 21 22 23 22 22 21 16 13 11 11 13 14 14 14 14 15 15 15 17 19 20 20 19 19 19 20 22 24 27 29 30 32 35 36 37 38 38 39 41 43 44 45 46
26 28 28 25 23 17 15 13 11 11 12 12 12 11 11 11 11 13 15 17 18 19 17 16 18 20 22 26 27 27 28 32 34 36 38 39 40 41 41 42 44 45 46 48
25 23 20 20 20 16 13 13 12 12 12 10 9 8 8 7 8 11 13 13 11 12 13 15 17 19 24 28 30 31 31 32 33 36 37 39 40 41 42 42 43 44 46 47
22 25 26 24 20 16 13 14 13 11 10 8 7 5 5 4 5 7 11 15 16 16 17 18 19 19 21 23 25 29 31 34 36 36 36 37 38 39 41 41 42 43 44 47
25 27 25 21 17 15 13 12 14 12 10 9 9 8 6 5 5 6 8 10 14 15 19 20 22 22 23 24 26 28 30 33 35 36 37 39 41 42 44 45 45 46 47 46

GFSNW_250_spd_114.txt.gz
Wind_Speed
90 90 90 90 88 89 86 86 87 85 85 83 81 79 77 69 62 59 61 61 57 53 49 50 45 39 37 36 36 38 43 49 54 59 62 64 67 70 73 77 72 69 69 72
93 91 91 88 86 87 86 88 85 84 83 80 78 77 70 63 61 61 62 60 55 52 46 43 38 34 32 33 36 36 36 44 48 50 55 57 63 68 69 68 67 65 67 67
96 93 90 89 85 87 86 84 84 83 78 77 75 70 64 63 63 63 63 59 52 49 43 38 34 32 28 31 34 33 35 42 44 47 52 55 61 64 66 66 64 56 62 63
93 89 88 88 86 86 87 82 82 78 75 75 69 65 66 67 65 63 61 57 49 47 41 35 31 29 26 29 29 29 31 35 41 46 49 52 58 60 60 62 62 60 55 61
93 91 89 87 86 85 83 81 78 76 72 67 69 70 72 69 67 62 57 53 47 40 37 31 28 28 25 27 24 24 28 31 34 38 46 50 54 57 58 56 53 54 56 55
92 89 88 86 84 84 82 78 74 70 70 72 73 74 73 69 64 60 54 51 46 36 35 28 26 25 23 25 23 23 25 28 29 30 38 45 47 50 51 51 47 50 53 52
90 87 86 83 81 80 74 71 71 74 77 77 76 72 71 63 59 59 49 47 43 33 31 25 23 22 22 23 22 22 23 26 27 27 34 39 43 43 43 44 43 44 47 47
86 83 80 75 72 71 73 75 77 79 81 82 75 72 66 61 57 53 48 41 38 33 28 25 20 20 23 23 23 20 23 25 28 28 32 36 39 42 41 39 39 45 48 49
79 78 77 76 78 78 79 80 81 83 83 77 72 67 62 58 52 48 44 36 34 28 24 24 21 21 24 24 23 21 24 26 28 30 32 36 38 38 38 40 44 44 44 48
83 83 82 81 82 82 83 83 82 79 74 72 68 63 59 53 48 44 36 34 32 26 25 24 22 20 22 25 26 24 22 28 30 32 33 33 34 37 39 42 43 39 42 46
86 85 84 83 82 81 82 79 73 71 72 65 62 61 54 45 43 38 31 32 28 24 25 23 21 20 24 26 25 25 24 27 31 33 32 32 35 37 39 40 39 39 40 43
82 82 81 78 76 74 73 72 69 67 65 59 56 54 46 36 41 33 29 30 24 22 23 21 21 22 24 25 28 27 29 27 32 35 36 35 37 38 39 40 41 42 45 49
79 76 75 75 73 73 71 67 64 61 58 52 48 48 33 35 35 27 28 25 22 21 20 19 20 22 23 25 27 27 27 25 30 36 39 39 42 43 43 46 49 53 50 48
74 74 72 70 67 66 65 61 60 55 50 46 45 37 32 32 30 26 27 24 22 19 19 18 18 21 22 23 24 24 23 27 29 36 42 45 46 47 47 49 51 50 48 47
68 68 67 66 64 62 60 57 53 48 45 42 37 33 30 30 25 25 25 24 20 17 17 17 17 17 19 19 21 24 27 30 34 38 41 45 47 49 50 50 50 48 48 48
56 59 60 58 56 55 53 49 44 42 41 37 33 30 26 27 23 24 23 23 19 18 17 14 13 14 17 20 23 25 24 23 30 35 41 47 49 51 51 50 48 50 51 48
48 47 48 47 47 46 42 40 40 39 34 32 30 24 25 23 22 23 22 22 18 17 15 13 12 14 16 19 20 18 18 23 29 31 38 41 44 48 50 49 49 48 46 48
43 42 40 39 38 37 39 35 33 31 31 28 26 21 23 22 22 23 22 20 16 16 14 13 12 13 15 18 19 20 22 26 27 30 33 36 40 45 46 46 45 46 49 49
37 37 36 37 37 34 31 30 29 30 26 26 22 20 21 21 21 21 19 18 14 13 13 14 15 13 14 17 20 22 24 25 26 29 32 36 43 45 45 44 44 46 46 49
34 37 39 35 29 29 28 26 27 25 24 22 19 20 21 21 20 18 17 16 14 14 15 15 15 15 15 17 21 23 23 25 27 29 31 35 39 43 43 44 43 42 42 41
37 34 28 26 27 26 25 26 25 22 21 20 21 21 20 20 18 17 17 16 16 16 16 15 14 13 15 18 22 25 26 26 28 29 31 33 36 39 40 42 42 42 40 38
26 24 24 24 22 25 26 24 21 20 20 21 20 19 18 17 17 18 18 19 18 16 15 15 15 17 17 19 21 24 27 28 29 30 31 33 36 37 38 40 41 40 38 40
22 24 26 27 29 27 24 20 19 19 20 18 16 14 15 16 17 16 16 17 16 15 15 16 18 19 19 19 20 23 27 29 30 31 32 34 36 38 39 40 40 41 42 42
29 31 31 29 26 21 20 22 21 19 16 13 11 11 11 12 12 13 13 13 13 13 13 15 17 19 21 21 21 23 27 30 33 33 33 34 36 37 38 40 41 41 42 43
29 27 25 24 26 26 23 23 21 18 14 12 12 12 11 11 10 11 12 13 13 13 14 17 21 23 25 26 26 28 28 29 31 33 35 36 37 38 39 40 41 42 44 45
27 29 29 28 25 25 25 22 18 16 13 14 14 12 12 11 11 11 12 13 15 15 16 18 20 22 24 25 28 30 31 32 32 33 35 36 38 39 41 40 40 40 41 42
33 30 29 28 25 22 20 18 16 16 15 13 12 12 12 10 10 10 10 10 12 13 15 18 21 22 25 26 28 29 31 31 32 33 34 36 37 38 38 39 41 42 42 43

GFSNW_250_spd_117.txt.gz
Wind_Speed
93 94 96 100 99 97 93 93 93 88 84 85 85 84 84 82 82 82 82 81 79 76 70 65 62 57 49 48 44 42 37 38 40 46 47 54 60 59 64 65 64 64 64 71
94 94 99 98 96 95 94 91 88 85 84 87 85 84 83 82 81 81 79 77 74 67 65 59 58 56 46 40 40 38 33 33 34 34 43 52 54 55 57 57 62 59 63 66
94 100 102 102 99 96 91 90 87 87 86 88 86 84 83 81 81 79 78 77 65 60 61 58 52 50 43 37 36 32 30 32 28 31 38 44 48 52 54 56 59 56 57 59
98 101 102 103 100 97 94 93 90 89 88 88 87 84 82 80 79 77 75 67 60 56 61 58 48 46 39 36 33 30 28 27 25 30 36 44 44 47 50 54 54 57 58 59
100 102 102 103 103 97 95 96 91 89 87 86 85 83 81 78 77 74 65 60 62 56 59 55 51 42 36 33 31 27 24 24 24 27 33 40 42 46 50 50 52 51 52 56
100 100 100 99 99 100 95 93 89 85 84 83 82 79 77 76 73 66 59 63 64 56 56 50 45 38 35 32 29 24 23 21 21 25 31 36 41 46 47 47 47 45 46 52
96 94 95 95 96 94 92 90 86 84 84 83 79 77 73 71 66 66 63 65 63 59 51 47 42 35 33 31 27 23 22 20 21 26 30 35 40 39 41 44 41 39 45 48
95 94 93 92 93 92 87 85 84 83 80 78 74 69 67 68 70 70 66 64 61 57 48 42 38 34 31 30 26 24 22 20 21 23 27 30 32 34 36 34 35 39 41 42
91 88 87 87 86 87 85 84 82 81 75 69 66 66 70 73 73 68 67 65 59 53 45 39 34 31 28 29 24 24 25 23 23 26 29 31 32 33 32 29 29 35 37 43
86 84 84 84 84 83 80 76 70 68 68 67 70 72 74 75 72 66 63 60 57 46 39 35 32 28 25 27 23 24 27 28 27 29 30 30 30 31 33 36 37 35 37 40
79 76 75 73 72 71 71 71 71 72 73 74 76 75 76 71 65 62 60 54 50 41 34 32 28 24 26 26 25 26 29 29 29 31 33 33 33 34 37 41 40 32 32 44
82 80 79 79 78 78 79 78 76 76 77 76 74 72 67 65 60 59 53 51 43 36 31 29 26 22 24 23 26 25 28 30 28 33 35 35 36 39 42 43 46 44 44 45
81 80 80 80 80 79 78 77 78 77 78 71 66 66 64 59 58 54 47 44 36 32 26 25 24 21 22 22 23 21 25 29 31 36 36 38 39 42 43 46 45 48 50 45
79 76 76 76 77 77 76 74 71 69 67 66 62 61 57 55 54 46 42 38 32 27 24 24 23 19 19 20 20 22 25 30 33 36 39 41 42 44 47 48 47 47 44 45
66 75 73 72 72 72 71 67 67 67 63 58 56 55 54 52 45 40 37 33 27 24 23 22 19 17 17 18 21 23 26 28 32 36 41 43 46 47 49 51 51 53 56 49
59 71 72 71 68 66 63 62 62 60 55 54 54 52 51 45 38 37 32 27 24 22 20 18 15 15 17 18 19 22 23 27 35 35 34 35 43 49 51 53 54 56 53 52
59 64 65 63 64 64 59 57 55 52 52 49 48 49 43 36 35 32 27 24 21 18 16 14 14 16 17 17 17 19 21 24 29 35 38 42 42 47 51 54 55 55 51 48
50 52 54 55 56 54 55 50 47 47 44 45 44 40 34 32 30 28 24 22 18 16 14 13 14 16 16 15 18 20 24 28 30 31 35 40 44 48 49 51 54 55 56 53
44 46 46 45 45 48 43 41 41 41 42 39 35 32 29 29 26 25 22 18 16 15 15 14 15 15 17 17 19 22 26 28 29 31 33 34 40 44 47 48 48 49 49 47
41 42 42 43 41 37 38 39 38 38 32 32 29 27 26 25 24 22 20 17 14 15 15 15 15 17 17 18 21 24 26 27 29 30 30 31 35 40 43 45 46 45 44 46
37 38 37 35 35 35 34 33 31 29 30 27 25 24 24 23 21 19 19 18 16 15 16 16 16 17 19 22 24 26 27 29 30 31 32 34 37 40 42 45 47 45 46 45
29 29 32 32 31 31 30 29 25 27 25 25 24 22 21 21 20 20 18 16 13 13 15 17 19 22 25 24 24 26 28 30 31 32 34 34 36 37 41 42 43 43 43 44
26 27 27 28 28 29 28 27 28 26 25 22 20 18 18 18 18 17 16 15 14 15 16 18 19 22 24 25 26 26 27 30 31 32 34 36 38 39 41 43 44 44 43 42
28 30 30 30 31 30 27 26 26 23 21 18 17 17 16 16 16 16 15 15 15 15 17 19 20 22 24 25 26 28 28 29 31 33 34 36 38 40 42 43 44 44 45 45
29 30 30 28 22 24 27 25 22 20 19 18 18 17 16 16 15 15 15 16 16 16 17 20 21 23 24 27 29 30 30 31 32 33 34 35 37 40 42 44 46 46 46 45
25 24 25 28 29 25 23 21 21 19 20 19 16 14 15 14 15 15 15 16 16 17 18 19 21 22 23 25 28 30 31 31 32 33 33 35 37 38 39 42 44 46 47 48
33 31 28 26 25 24 21 21 20 18 15 13 11 11 13 13 13 13 12 13 14 15 17 18 21 22 25 25 26 28 29 30 31 32 35 36 36 36 38 39 41 42 43 45

GFSNW_250_spd_120.txt.gz
Wind_Speed
107 104 105 101 102 102 97 101 96 100 96 95 97 98 97 96 89 90 87 87 88 87 87 86 86 83 81 78 74 65 52 46 44 38 35 34 37 39 39 42 50 50 47 55
103 104 105 103 100 99 100 100 98 98 98 96 98 97 94 93 89 90 89 89 88 86 85 84 82 79 81 73 65 56 46 38 40 35 33 31 33 35 38 40 43 44 47 51
96 101 101 101 98 98 98 97 97 98 97 98 100 98 97 95 92 90 90 88 87 84 81 79 78 77 73 63 57 48 40 36 34 32 31 28 28 33 36 38 35 40 44 51
84 92 98 98 97 98 97 98 96 96 95 98 99 100 97 94 92 94 88 86 84 80 78 76 80 74 58 58 53 43 33 34 30 29 29 29 23 29 33 35 37 40 48 54
76 83 85 84 91 92 93 94 94 95 97 98 97 97 96 96 93 90 87 83 80 78 74 76 75 62 50 54 48 40 30 30 26 28 27 24 26 26 28 32 35 35 44 55
79 78 79 82 84 86 90 93 93 96 93 94 95 98 97 94 92 86 82 77 75 74 74 69 65 57 51 47 41 36 28 27 27 28 26 26 29 27 31 30 36 42 48 57
82 83 84 81 84 88 91 93 95 95 95 94 93 93 90 87 86 82 77 74 72 73 63 58 58 53 47 42 37 32 26 25 26 26 29 32 33 30 29 35 35 40 44 47
90 88 85 90 89 91 92 92 90 92 92 91 88 88 88 86 80 77 73 72 71 64 59 58 56 50 43 37 34 30 25 24 25 29 30 32 31 27 31 33 35 39 42 45
85 89 90 90 92 93 94 93 91 93 91 88 88 87 81 78 74 72 69 68 59 61 61 58 52 46 38 35 31 28 26 23 24 30 30 29 27 26 25 27 31 37 39 42
87 91 91 91 89 89 90 90 90 90 90 88 81 78 75 70 68 65 59 63 65 62 59 57 50 42 36 31 30 26 27 25 25 31 31 30 31 30 30 32 34 38 42 45
83 82 82 86 89 88 89 87 85 84 81 78 74 67 67 64 63 62 62 66 66 63 57 52 45 37 31 30 28 27 27 27 25 30 32 33 34 34 35 36 37 39 39 42
78 79 79 79 81 82 81 79 79 75 73 68 63 60 61 64 66 69 67 66 63 60 52 47 40 34 29 28 28 27 26 26 27 28 33 34 34 35 41 44 43 44 45 48
74 73 72 71 71 72 73 70 68 67 63 58 61 64 68 69 69 69 67 63 59 54 47 40 36 31 28 27 26 26 22 25 27 29 34 37 36 42 47 51 49 47 50 51
78 78 76 74 75 74 73 72 71 69 69 68 65 69 69 68 66 64 63 59 54 50 40 36 32 28 27 26 25 27 25 29 30 30 35 37 39 47 51 51 53 55 53 53
81 76 78 78 78 76 76 73 70 69 71 69 67 66 65 64 63 61 59 55 49 42 35 32 28 25 25 26 25 26 26 28 30 29 37 39 43 50 53 53 53 57 57 54
74 73 79 74 73 74 73 71 71 72 69 63 63 62 59 56 58 58 55 47 41 34 30 28 24 24 24 26 24 25 27 27 28 33 35 37 44 50 53 57 57 59 59 53
70 73 71 73 69 69 68 66 65 64 62 61 58 57 56 57 56 53 48 40 34 29 26 24 23 21 24 23 24 26 25 27 30 34 37 38 39 48 52 56 58 61 58 54
71 65 62 63 69 67 64 61 59 60 58 55 55 56 54 53 50 46 37 32 27 24 24 22 21 22 22 23 24 23 24 27 33 38 39 42 41 46 51 56 59 60 59 56
60 46 46 57 59 57 58 57 58 55 52 52 52 51 49 43 42 36 30 26 23 21 22 21 20 21 23 22 21 24 25 28 32 37 38 40 40 44 49 53 57 58 60 58
41 43 40 46 51 51 52 51 48 47 48 47 45 41 39 37 33 27 24 22 21 20 21 19 20 23 22 20 21 23 24 26 30 34 35 36 40 42 46 49 52 56 54 55
37 40 41 45 42 42 40 40 41 41 38 35 35 35 31 29 26 23 22 21 21 21 22 21 21 19 19 25 26 25 24 24 28 33 34 35 37 39 41 45 47 46 48 49
37 36 36 33 32 32 35 35 32 32 31 32 29 28 25 23 22 20 20 19 19 18 18 20 19 21 24 25 26 26 25 26 28 30 33 35 36 38 40 41 43 44 47 47
25 27 29 31 32 32 31 31 30 31 28 25 24 22 21 20 20 19 18 18 19 18 19 18 18 22 22 24 26 27 25 26 28 30 32 34 36 38 40 41 42 45 46 47
29 28 28 27 29 30 29 27 25 22 22 21 19 19 19 19 18 18 17 18 18 19 19 18 19 22 24 25 26 27 28 29 30 31 32 34 35 37 39 41 43 45 47 48
25 25 26 26 23 21 22 22 21 20 18 18 19 19 18 17 17 17 17 17 18 18 18 20 21 22 23 24 26 29 31 31 31 32 32 33 35 38 39 41 43 44 45 46
20 19 19 21 22 23 21 20 19 18 18 18 16 15 15 15 14 14 14 15 16 16 17 19 21 22 23 24 26 28 30 31 32 34 34 35 35 37 38 40 43 45 45 47
26 25 24 22 21 21 21 19 18 16 13 13 12 11 10 11 11 12 13 14 15 16 17 18 19 22 23 25 26 27 28 29 32 34 35 36 37 37 39 40 42 43 45 46